ASY543 YAMB-YWLM

Flight info

Callsign ASY543
Flight time 1h 15m
Altitude 25000
Route AMB DCT COWIE DCT 2741S15320E 2748S15326E DCT LOTMA DCT SEMAJ DCT 2938S15349E 3020S15339E 3045S15332E DCT 3241S15234E 3306S15210E DCT WLM
Aircraft A332/H-SADE1E2E3GHIJ3J5M1P2RWXY/LB2D1

Departure

Time 2026-04-18 08:10
Airport RAAF Base Amberley (YAMB)

Arrival

Time 2026-04-18 09:26
Airport Newcastle Airport (YWLM)
Time Latitude Longitude Altitude Speed Heading
2026-04-18 08:01 -27.62494 152.70366 100 ft 0 kts 339°
2026-04-18 08:02 -27.62493 152.70365 100 ft 1 kts 340°
2026-04-18 08:02 -27.62472 152.70358 103 ft 5 kts 344°
2026-04-18 08:03 -27.62450 152.70358 101 ft 0 kts
2026-04-18 08:03 -27.62442 152.70364 103 ft 2 kts 25°
2026-04-18 08:03 -27.62429 152.70380 102 ft 4 kts 44°
2026-04-18 08:03 -27.62397 152.70396 100 ft 5 kts
2026-04-18 08:04 -27.62358 152.70385 102 ft 7 kts 341°
2026-04-18 08:04 -27.62299 152.70367 100 ft 10 kts 353°
2026-04-18 08:04 -27.62236 152.70389 99 ft 0 kts 29°
2026-04-18 08:08 -27.62234 152.70390 99 ft 1 kts 30°
2026-04-18 08:08 -27.62230 152.70392 99 ft 1 kts 30°
2026-04-18 08:08 -27.62204 152.70427 101 ft 9 kts 63°
2026-04-18 08:08 -27.62191 152.70511 100 ft 11 kts 92°
2026-04-18 08:09 -27.62237 152.70558 100 ft 7 kts 159°
2026-04-18 08:09 -27.62238 152.70558 101 ft 0 kts 159°
2026-04-18 08:10 -27.62327 152.70598 102 ft 48 kts 157°
2026-04-18 08:10 -27.62887 152.70850 102 ft 122 kts 158°
2026-04-18 08:10 -27.63839 152.71231 375 ft 151 kts 156°
2026-04-18 08:10 -27.64865 152.71623 864 ft 158 kts 158°
2026-04-18 08:11 -27.65937 152.72020 1257 ft 174 kts 158°
2026-04-18 08:11 -27.67222 152.72523 1258 ft 221 kts 157°
2026-04-18 08:11 -27.68756 152.73092 1697 ft 235 kts 158°
2026-04-18 08:11 -27.70336 152.73665 2281 ft 247 kts 158°
2026-04-18 08:12 -27.72035 152.74297 2565 ft 266 kts 158°
2026-04-18 08:12 -27.73864 152.74998 2730 ft 288 kts 158°
2026-04-18 08:12 -27.75627 152.76142 2958 ft 301 kts 136°
2026-04-18 08:12 -27.76884 152.78083 3140 ft 317 kts 113°
2026-04-18 08:13 -27.77380 152.80538 3381 ft 332 kts 91°
2026-04-18 08:13 -27.76983 152.83133 3769 ft 343 kts 70°
2026-04-18 08:13 -27.75738 152.85451 4196 ft 352 kts 49°
2026-04-18 08:13 -27.73799 152.87164 4696 ft 358 kts 27°
2026-04-18 08:14 -27.71437 152.88087 5140 ft 362 kts 13°
2026-04-18 08:14 -27.69100 152.89180 5057 ft 366 kts 31°
2026-04-18 08:14 -27.67227 152.91098 5036 ft 365 kts 51°
2026-04-18 08:14 -27.66046 152.93625 5039 ft 368 kts 72°
2026-04-18 08:15 -27.65686 152.96466 5046 ft 367 kts 92°
2026-04-18 08:15 -27.66153 152.99279 5045 ft 366 kts 107°
2026-04-18 08:15 -27.66892 153.02021 5051 ft 366 kts 106°
2026-04-18 08:15 -27.67440 153.04829 5058 ft 366 kts 100°
2026-04-18 08:16 -27.67751 153.07685 5103 ft 369 kts 95°
2026-04-18 08:16 -27.67899 153.10576 5586 ft 373 kts 93°
2026-04-18 08:16 -27.67978 153.13538 6070 ft 378 kts 92°
2026-04-18 08:16 -27.68031 153.16505 6605 ft 383 kts 92°
2026-04-18 08:17 -27.68082 153.19546 7136 ft 386 kts 92°
2026-04-18 08:17 -27.68135 153.22577 7699 ft 388 kts 92°
2026-04-18 08:17 -27.68190 153.25643 8200 ft 393 kts 92°
2026-04-18 08:17 -27.68249 153.28734 8752 ft 395 kts 93°
2026-04-18 08:18 -27.68653 153.31800 9262 ft 395 kts 109°
2026-04-18 08:18 -27.69812 153.34540 9836 ft 391 kts 127°
2026-04-18 08:18 -27.71628 153.36784 10385 ft 386 kts 143°
2026-04-18 08:18 -27.73799 153.38581 10871 ft 387 kts 149°
2026-04-18 08:19 -27.76043 153.40266 11368 ft 389 kts 149°
2026-04-18 08:19 -27.78292 153.42005 11858 ft 393 kts 148°
2026-04-18 08:19 -27.80527 153.43821 12392 ft 396 kts 146°
2026-04-18 08:19 -27.82701 153.45762 12882 ft 401 kts 143°
2026-04-18 08:20 -27.84840 153.47810 13390 ft 405 kts 142°
2026-04-18 08:20 -27.86989 153.49893 13873 ft 409 kts 142°
2026-04-18 08:20 -27.89132 153.51962 14302 ft 412 kts 143°
2026-04-18 08:20 -27.91328 153.54066 14771 ft 415 kts 143°
2026-04-18 08:21 -27.93550 153.56185 15217 ft 419 kts 143°
2026-04-18 08:21 -27.95788 153.58316 15666 ft 423 kts 143°
2026-04-18 08:21 -27.98049 153.60466 16130 ft 427 kts 143°
2026-04-18 08:21 -28.00338 153.62645 16586 ft 430 kts 143°
2026-04-18 08:22 -28.02637 153.64835 17047 ft 434 kts 143°
2026-04-18 08:22 -28.04961 153.67049 17509 ft 438 kts 143°
2026-04-18 08:22 -28.07300 153.69280 17984 ft 442 kts 143°
2026-04-18 08:22 -28.09657 153.71529 18437 ft 445 kts 143°
2026-04-18 08:23 -28.12156 153.73607 18836 ft 445 kts 153°
2026-04-18 08:23 -28.14908 153.75171 19293 ft 442 kts 162°
2026-04-18 08:23 -28.17832 153.76206 19733 ft 439 kts 171°
2026-04-18 08:23 -28.20825 153.76976 20169 ft 443 kts 172°
2026-04-18 08:24 -28.23838 153.77772 20609 ft 446 kts 171°
2026-04-18 08:24 -28.26865 153.78580 21061 ft 449 kts 172°
2026-04-18 08:24 -28.29883 153.79387 21488 ft 452 kts 172°
2026-04-18 08:24 -28.32955 153.80208 21926 ft 455 kts 172°
2026-04-18 08:25 -28.36052 153.81035 22365 ft 459 kts 172°
2026-04-18 08:25 -28.39170 153.81867 22801 ft 462 kts 172°
2026-04-18 08:25 -28.42307 153.82705 23235 ft 465 kts 172°
2026-04-18 08:25 -28.45468 153.83550 23650 ft 469 kts 172°
2026-04-18 08:26 -28.48659 153.84403 24032 ft 471 kts 172°
2026-04-18 08:26 -28.51859 153.85260 24416 ft 474 kts 172°
2026-04-18 08:26 -28.55077 153.86121 24784 ft 476 kts 173°
2026-04-18 08:26 -28.58310 153.86988 25116 ft 479 kts 173°
2026-04-18 08:27 -28.61555 153.87858 25059 ft 479 kts 173°
2026-04-18 08:27 -28.64796 153.88684 25044 ft 474 kts 176°
2026-04-18 08:27 -28.68061 153.89142 25043 ft 469 kts 182°
2026-04-18 08:27 -28.71304 153.89195 25047 ft 464 kts 188°
2026-04-18 08:28 -28.74511 153.88936 25046 ft 461 kts 190°
2026-04-18 08:28 -28.77717 153.88670 25046 ft 462 kts 190°
2026-04-18 08:28 -28.80918 153.88416 25046 ft 461 kts 190°
2026-04-18 08:28 -28.84121 153.88161 25044 ft 461 kts 190°
2026-04-18 08:29 -28.87317 153.87905 25046 ft 461 kts 190°
2026-04-18 08:29 -28.90518 153.87646 25046 ft 460 kts 190°
2026-04-18 08:29 -28.93716 153.87387 25046 ft 460 kts 190°
2026-04-18 08:29 -28.96904 153.87127 25050 ft 460 kts 190°
2026-04-18 08:30 -29.00093 153.86866 25049 ft 459 kts 190°
2026-04-18 08:30 -29.03278 153.86606 25047 ft 458 kts 190°
2026-04-18 08:30 -29.06459 153.86346 25050 ft 458 kts 190°
2026-04-18 08:30 -29.09637 153.86087 25051 ft 457 kts 190°
2026-04-18 08:31 -29.12809 153.85827 25052 ft 457 kts 190°
2026-04-18 08:31 -29.15942 153.85571 25055 ft 456 kts 190°
2026-04-18 08:31 -29.19107 153.85311 25055 ft 456 kts 190°
2026-04-18 08:31 -29.22276 153.85052 25051 ft 456 kts 190°
2026-04-18 08:32 -29.25433 153.84792 25051 ft 455 kts 190°
2026-04-18 08:32 -29.28595 153.84533 25059 ft 455 kts 190°
2026-04-18 08:32 -29.31758 153.84273 25054 ft 455 kts 190°
2026-04-18 08:32 -29.34911 153.84014 25058 ft 455 kts 190°
2026-04-18 08:33 -29.38073 153.83754 25059 ft 454 kts 190°
2026-04-18 08:33 -29.41227 153.83494 25056 ft 454 kts 190°
2026-04-18 08:33 -29.44377 153.83235 25056 ft 454 kts 190°
2026-04-18 08:33 -29.47528 153.82976 25056 ft 454 kts 190°
2026-04-18 08:34 -29.50678 153.82716 25058 ft 453 kts 190°
2026-04-18 08:34 -29.53793 153.82459 25059 ft 454 kts 190°
2026-04-18 08:34 -29.56938 153.82199 25061 ft 453 kts 190°
2026-04-18 08:34 -29.60090 153.81939 25060 ft 454 kts 190°
2026-04-18 08:35 -29.63232 153.81623 25061 ft 451 kts 193°
2026-04-18 08:35 -29.66301 153.80978 25059 ft 447 kts 198°
2026-04-18 08:35 -29.69339 153.80241 25061 ft 447 kts 197°
2026-04-18 08:35 -29.72388 153.79519 25063 ft 447 kts 197°
2026-04-18 08:36 -29.75439 153.78801 25063 ft 447 kts 197°
2026-04-18 08:36 -29.78488 153.78082 25062 ft 447 kts 197°
2026-04-18 08:36 -29.81535 153.77361 25063 ft 447 kts 197°
2026-04-18 08:36 -29.84584 153.76638 25061 ft 447 kts 197°
2026-04-18 08:37 -29.87628 153.75916 25067 ft 447 kts 197°
2026-04-18 08:37 -29.90671 153.75193 25063 ft 447 kts 197°
2026-04-18 08:37 -29.93717 153.74468 25065 ft 447 kts 197°
2026-04-18 08:37 -29.96757 153.73745 25064 ft 446 kts 198°
2026-04-18 08:38 -29.99807 153.73019 25065 ft 446 kts 198°
2026-04-18 08:38 -30.02848 153.72294 25064 ft 446 kts 198°
2026-04-18 08:38 -30.05865 153.71575 25065 ft 446 kts 198°
2026-04-18 08:38 -30.08933 153.70843 25067 ft 446 kts 198°
2026-04-18 08:39 -30.11977 153.70116 25066 ft 446 kts 198°
2026-04-18 08:39 -30.15007 153.69392 25068 ft 446 kts 197°
2026-04-18 08:39 -30.18017 153.68673 25072 ft 446 kts 197°
2026-04-18 08:39 -30.21091 153.67938 25072 ft 446 kts 197°
2026-04-18 08:40 -30.24091 153.67220 25072 ft 445 kts 197°
2026-04-18 08:40 -30.27123 153.66494 25073 ft 446 kts 197°
2026-04-18 08:40 -30.30165 153.65765 25072 ft 445 kts 197°
2026-04-18 08:40 -30.33200 153.65037 25073 ft 445 kts 197°
2026-04-18 08:41 -30.36222 153.64269 25072 ft 444 kts 199°
2026-04-18 08:41 -30.39218 153.63426 25075 ft 443 kts 199°
2026-04-18 08:41 -30.42200 153.62568 25073 ft 442 kts 199°
2026-04-18 08:41 -30.45186 153.61713 25074 ft 442 kts 199°
2026-04-18 08:42 -30.48181 153.60864 25074 ft 442 kts 199°
2026-04-18 08:42 -30.51165 153.60025 25074 ft 441 kts 199°
2026-04-18 08:42 -30.54147 153.59189 25077 ft 441 kts 199°
2026-04-18 08:42 -30.57135 153.58352 25074 ft 441 kts 199°
2026-04-18 08:43 -30.60128 153.57513 25074 ft 441 kts 199°
2026-04-18 08:43 -30.63109 153.56677 25078 ft 441 kts 199°
2026-04-18 08:43 -30.66092 153.55840 25080 ft 441 kts 199°
2026-04-18 08:43 -30.69073 153.55003 25081 ft 441 kts 199°
2026-04-18 08:44 -30.72012 153.54177 25081 ft 440 kts 199°
2026-04-18 08:44 -30.74958 153.53247 25080 ft 437 kts 203°
2026-04-18 08:44 -30.77781 153.51988 25080 ft 434 kts 208°
2026-04-18 08:44 -30.80563 153.50602 25078 ft 434 kts 207°
2026-04-18 08:45 -30.83343 153.49240 25077 ft 434 kts 207°
2026-04-18 08:45 -30.86126 153.47882 25081 ft 434 kts 207°
2026-04-18 08:45 -30.88916 153.46519 25084 ft 434 kts 207°
2026-04-18 08:45 -30.91702 153.45155 25082 ft 434 kts 207°
2026-04-18 08:46 -30.94485 153.43791 25078 ft 434 kts 207°
2026-04-18 08:46 -30.97271 153.42422 25081 ft 434 kts 207°
2026-04-18 08:46 -31.00051 153.41056 25088 ft 434 kts 207°
2026-04-18 08:46 -31.02844 153.39683 25087 ft 434 kts 207°
2026-04-18 08:47 -31.05627 153.38313 25082 ft 431 kts 207°
2026-04-18 08:47 -31.08337 153.36984 25078 ft 415 kts 207°
2026-04-18 08:47 -31.10939 153.35708 25083 ft 397 kts 207°
2026-04-18 08:47 -31.13445 153.34476 25087 ft 387 kts 207°
2026-04-18 08:48 -31.15943 153.33238 25085 ft 394 kts 207°
2026-04-18 08:48 -31.18476 153.31980 25083 ft 395 kts 207°
2026-04-18 08:48 -31.20998 153.30733 25086 ft 394 kts 207°
2026-04-18 08:48 -31.23520 153.29486 25091 ft 394 kts 207°
2026-04-18 08:49 -31.26050 153.28235 25093 ft 394 kts 207°
2026-04-18 08:49 -31.28574 153.26986 25091 ft 394 kts 207°
2026-04-18 08:49 -31.31058 153.25757 25093 ft 393 kts 207°
2026-04-18 08:49 -31.33582 153.24507 25093 ft 393 kts 207°
2026-04-18 08:50 -31.36106 153.23256 25081 ft 394 kts 207°
2026-04-18 08:50 -31.38628 153.22005 25086 ft 394 kts 207°
2026-04-18 08:50 -31.41147 153.20756 25090 ft 393 kts 207°
2026-04-18 08:50 -31.43666 153.19505 25099 ft 393 kts 207°
2026-04-18 08:51 -31.46181 153.18256 25091 ft 393 kts 207°
2026-04-18 08:51 -31.48706 153.17000 25092 ft 393 kts 207°
2026-04-18 08:51 -31.51233 153.15744 25096 ft 393 kts 207°
2026-04-18 08:51 -31.52897 153.14916 25096 ft 393 kts 207°
2026-04-18 08:52 -31.56264 153.13239 25094 ft 393 kts 207°
2026-04-18 08:52 -31.57933 153.12408 25096 ft 393 kts 207°
2026-04-18 08:52 -31.60451 153.11153 25093 ft 393 kts 207°
2026-04-18 08:52 -31.62968 153.09897 25093 ft 393 kts 207°
2026-04-18 08:53 -31.66303 153.08233 25094 ft 393 kts 207°
2026-04-18 08:53 -31.68820 153.06975 25097 ft 393 kts 207°
2026-04-18 08:53 -31.70512 153.06130 25096 ft 393 kts 207°
2026-04-18 08:53 -31.73031 153.04871 25093 ft 392 kts 207°
2026-04-18 08:54 -31.75538 153.03617 25096 ft 392 kts 207°
2026-04-18 08:54 -31.78021 153.02374 25096 ft 392 kts 207°
2026-04-18 08:54 -31.80536 153.01115 25098 ft 392 kts 207°
2026-04-18 08:54 -31.83053 152.99854 25095 ft 392 kts 207°
2026-04-18 08:55 -31.85562 152.98596 25095 ft 392 kts 207°
2026-04-18 08:55 -31.88071 152.97337 25099 ft 392 kts 207°
2026-04-18 08:55 -31.90577 152.96079 25097 ft 392 kts 207°
2026-04-18 08:55 -31.93088 152.94818 25102 ft 392 kts 207°
2026-04-18 08:56 -31.95591 152.93560 25101 ft 391 kts 207°
2026-04-18 08:56 -31.98093 152.92301 25102 ft 391 kts 207°
2026-04-18 08:56 -32.00602 152.91039 25101 ft 391 kts 207°
2026-04-18 08:56 -32.03107 152.89777 25100 ft 391 kts 207°
2026-04-18 08:57 -32.08106 152.87258 25096 ft 391 kts 207°
2026-04-18 08:57 -32.10604 152.85999 24976 ft 389 kts 207°
2026-04-18 08:57 -32.13087 152.84746 24622 ft 387 kts 206°
2026-04-18 08:58 -32.15556 152.83498 24238 ft 385 kts 206°
2026-04-18 08:58 -32.18008 152.82259 23754 ft 382 kts 206°
2026-04-18 08:58 -32.20448 152.81026 23180 ft 379 kts 206°
2026-04-18 08:58 -32.22862 152.79805 22610 ft 376 kts 206°
2026-04-18 08:59 -32.25261 152.78591 22068 ft 373 kts 206°
2026-04-18 08:59 -32.27604 152.77404 21520 ft 370 kts 206°
2026-04-18 08:59 -32.29961 152.76209 20973 ft 367 kts 206°
2026-04-18 08:59 -32.32301 152.75023 20436 ft 364 kts 206°
2026-04-18 09:00 -32.34622 152.73845 19892 ft 361 kts 206°
2026-04-18 09:00 -32.36926 152.72675 19347 ft 358 kts 205°
2026-04-18 09:00 -32.39206 152.71517 18816 ft 356 kts 205°
2026-04-18 09:00 -32.41471 152.70365 18273 ft 353 kts 205°
2026-04-18 09:01 -32.43714 152.69225 17665 ft 350 kts 205°
2026-04-18 09:01 -32.45951 152.68087 17062 ft 347 kts 205°
2026-04-18 09:01 -32.48165 152.66960 16470 ft 344 kts 205°
2026-04-18 09:01 -32.50357 152.65844 15881 ft 342 kts 205°
2026-04-18 09:02 -32.52504 152.64750 15339 ft 339 kts 205°
2026-04-18 09:02 -32.54677 152.63642 15069 ft 334 kts 205°
2026-04-18 09:02 -32.56785 152.62566 15001 ft 339 kts 205°
2026-04-18 09:02 -32.58966 152.61452 14997 ft 338 kts 205°
2026-04-18 09:03 -32.61127 152.60349 14998 ft 338 kts 205°
2026-04-18 09:03 -32.63287 152.59245 14990 ft 338 kts 205°
2026-04-18 09:03 -32.65448 152.58142 14992 ft 338 kts 205°
2026-04-18 09:03 -32.67576 152.56955 15000 ft 337 kts 210°
2026-04-18 09:04 -32.69565 152.55472 14996 ft 337 kts 216°
2026-04-18 09:04 -32.71396 152.53744 14995 ft 337 kts 219°
2026-04-18 09:04 -32.73212 152.51990 14996 ft 337 kts 219°
2026-04-18 09:04 -32.75038 152.50247 14995 ft 337 kts 219°
2026-04-18 09:05 -32.76865 152.48506 14996 ft 337 kts 219°
2026-04-18 09:05 -32.78695 152.46760 14998 ft 337 kts 219°
2026-04-18 09:05 -32.80522 152.45014 14979 ft 336 kts 219°
2026-04-18 09:05 -32.82337 152.43277 14716 ft 334 kts 219°
2026-04-18 09:06 -32.84143 152.41546 14294 ft 333 kts 219°
2026-04-18 09:06 -32.85942 152.39822 13709 ft 331 kts 219°
2026-04-18 09:06 -32.87727 152.38108 13099 ft 329 kts 219°
2026-04-18 09:06 -32.89498 152.36408 12487 ft 326 kts 219°
2026-04-18 09:07 -32.91251 152.34725 12108 ft 320 kts 219°
2026-04-18 09:07 -32.92997 152.33047 12013 ft 325 kts 218°
2026-04-18 09:07 -32.94759 152.31354 12001 ft 325 kts 218°
2026-04-18 09:07 -32.96517 152.29663 12012 ft 325 kts 218°
2026-04-18 09:08 -32.98274 152.27972 12005 ft 325 kts 218°
2026-04-18 09:08 -33.00034 152.26277 11998 ft 325 kts 219°
2026-04-18 09:08 -33.01791 152.24585 11999 ft 325 kts 219°
2026-04-18 09:08 -33.03551 152.22888 12007 ft 325 kts 218°
2026-04-18 09:09 -33.05148 152.20990 12006 ft 327 kts 232°
2026-04-18 09:09 -33.06159 152.18550 12007 ft 332 kts 250°
2026-04-18 09:09 -33.06446 152.15819 11831 ft 337 kts 268°
2026-04-18 09:09 -33.05939 152.13097 11431 ft 346 kts 288°
2026-04-18 09:10 -33.04618 152.10689 11113 ft 353 kts 309°
2026-04-18 09:10 -33.02786 152.08685 11012 ft 359 kts 313°
2026-04-18 09:10 -33.00950 152.06671 11010 ft 358 kts 310°
2026-04-18 09:10 -32.99534 152.04298 11009 ft 347 kts 290°
2026-04-18 09:11 -32.98937 152.01570 11016 ft 337 kts 270°
2026-04-18 09:11 -32.99162 151.98832 11014 ft 330 kts 251°
2026-04-18 09:11 -33.00104 151.96378 11021 ft 325 kts 236°
2026-04-18 09:11 -33.01282 151.94076 11016 ft 326 kts 237°
2026-04-18 09:12 -33.02451 151.91754 11017 ft 326 kts 237°
2026-04-18 09:12 -33.03609 151.89432 11011 ft 326 kts 237°
2026-04-18 09:12 -33.04764 151.87107 11014 ft 326 kts 237°
2026-04-18 09:12 -33.05920 151.84777 11007 ft 326 kts 237°
2026-04-18 09:13 -33.07070 151.82459 10783 ft 324 kts 237°
2026-04-18 09:13 -33.08214 151.80152 10362 ft 322 kts 237°
2026-04-18 09:13 -33.09351 151.77860 9774 ft 321 kts 237°
2026-04-18 09:13 -33.10469 151.75605 9225 ft 317 kts 237°
2026-04-18 09:14 -33.11582 151.73358 9034 ft 317 kts 237°
2026-04-18 09:14 -33.12707 151.71087 8990 ft 318 kts 237°
2026-04-18 09:14 -33.13561 151.68652 8997 ft 323 kts 254°
2026-04-18 09:14 -33.13640 151.65959 8850 ft 329 kts 274°
2026-04-18 09:15 -33.12877 151.63365 8474 ft 337 kts 296°
2026-04-18 09:15 -33.11325 151.61252 8118 ft 343 kts 319°
2026-04-18 09:15 -33.09169 151.59972 8015 ft 354 kts 341°
2026-04-18 09:15 -33.06741 151.59415 8005 ft 357 kts 348°
2026-04-18 09:16 -33.04279 151.58956 8005 ft 356 kts 348°
2026-04-18 09:16 -33.01829 151.58494 8007 ft 357 kts 348°
2026-04-18 09:16 -32.99384 151.58012 8003 ft 356 kts 348°
2026-04-18 09:16 -32.96950 151.57515 8009 ft 356 kts 347°
2026-04-18 09:17 -32.94502 151.57005 8003 ft 356 kts 347°
2026-04-18 09:17 -32.92093 151.56501 8006 ft 356 kts 347°
2026-04-18 09:17 -32.89640 151.55988 8011 ft 344 kts 347°
2026-04-18 09:17 -32.87467 151.55558 8009 ft 294 kts 347°
2026-04-18 09:18 -32.85644 151.55214 8001 ft 240 kts 347°
2026-04-18 09:18 -32.84083 151.54915 8002 ft 224 kts 346°
2026-04-18 09:18 -32.82557 151.54608 8012 ft 221 kts 346°
2026-04-18 09:18 -32.81046 151.54301 7944 ft 218 kts 346°
2026-04-18 09:19 -32.79561 151.54002 7613 ft 216 kts 346°
2026-04-18 09:19 -32.78083 151.53708 7105 ft 214 kts 346°
2026-04-18 09:19 -32.76623 151.53417 6522 ft 212 kts 346°
2026-04-18 09:19 -32.75165 151.53517 5886 ft 215 kts 18°
2026-04-18 09:20 -32.73899 151.54439 5279 ft 213 kts 39°
2026-04-18 09:20 -32.72782 151.55584 4690 ft 209 kts 43°
2026-04-18 09:20 -32.71714 151.56738 4136 ft 205 kts 44°
2026-04-18 09:20 -32.70732 151.57930 3577 ft 198 kts 62°
2026-04-18 09:21 -32.70319 151.59412 3139 ft 183 kts 85°
2026-04-18 09:21 -32.69975 151.60892 3038 ft 191 kts 72°
2026-04-18 09:21 -32.69436 151.62332 3002 ft 191 kts 70°
2026-04-18 09:21 -32.68883 151.63763 2994 ft 191 kts 70°
2026-04-18 09:22 -32.68328 151.65202 3002 ft 191 kts 70°
2026-04-18 09:22 -32.68019 151.66684 2985 ft 181 kts 102°
2026-04-18 09:22 -32.68560 151.67979 2988 ft 176 kts 131°
2026-04-18 09:22 -32.69356 151.69081 2891 ft 175 kts 135°
2026-04-18 09:23 -32.70157 151.70148 2664 ft 174 kts 134°
2026-04-18 09:23 -32.70944 151.71243 2430 ft 174 kts 133°
2026-04-18 09:23 -32.71727 151.72347 2187 ft 175 kts 133°
2026-04-18 09:23 -32.72513 151.73457 1960 ft 176 kts 133°
2026-04-18 09:24 -32.73300 151.74568 1715 ft 176 kts 132°
2026-04-18 09:24 -32.74086 151.75680 1469 ft 176 kts 132°
2026-04-18 09:24 -32.74875 151.76795 1238 ft 177 kts 132°
2026-04-18 09:24 -32.75669 151.77917 1001 ft 177 kts 132°
2026-04-18 09:25 -32.76459 151.79035 752 ft 177 kts 132°
2026-04-18 09:25 -32.77250 151.80153 520 ft 176 kts 131°
2026-04-18 09:25 -32.78032 151.81261 294 ft 175 kts 131°
2026-04-18 09:25 -32.78818 151.82372 58 ft 174 kts 132°
2026-04-18 09:26 -32.79537 151.83402 37 ft 147 kts 132°
2026-04-18 09:26 -32.80049 151.84098 34 ft 59 kts 131°
2026-04-18 09:26 -32.80132 151.84207 34 ft 0 kts 133°
2026-04-18 09:26 -32.80133 151.84209 34 ft 2 kts 130°
2026-04-18 09:27 -32.80147 151.84239 33 ft 6 kts 117°
2026-04-18 09:27 -32.80183 151.84304 32 ft 14 kts 126°
2026-04-18 09:27 -32.80250 151.84411 31 ft 18 kts 118°
2026-04-18 09:27 -32.80232 151.84515 32 ft 12 kts 39°
2026-04-18 09:28 -32.80164 151.84546 32 ft 3 kts 340°
2026-04-18 09:28 -32.80153 151.84538 32 ft 6 kts 333°
2026-04-18 09:28 -32.80106 151.84489 32 ft 11 kts 313°
2026-04-18 09:28 -32.80048 151.84409 33 ft 15 kts 309°
2026-04-18 09:29 -32.79974 151.84305 34 ft 18 kts 311°
2026-04-18 09:29 -32.79872 151.84265 33 ft 16 kts 24°
2026-04-18 09:29 -32.79826 151.84249 35 ft 0 kts 329°
2026-04-18 09:29 -32.79825 151.84248 35 ft 1 kts 329°
2026-04-18 09:30 -32.79805 151.84230 35 ft 6 kts 322°
2026-04-18 09:30 -32.79761 151.84194 35 ft 9 kts 334°
2026-04-18 09:30 -32.79689 151.84165 35 ft 12 kts 359°
2026-04-18 09:30 -32.79611 151.84165 35 ft 12 kts 338°
2026-04-18 09:31 -32.79534 151.84100 36 ft 15 kts 324°
2026-04-18 09:31 -32.79510 151.84082 36 ft 1 kts 330°
2026-04-18 09:31 -32.79499 151.84084 36 ft 2 kts 358°
2026-04-18 09:31 -32.79481 151.84096 36 ft 3 kts 32°
2026-04-18 09:32 -32.79477 151.84102 36 ft 0 kts 44°